owner,sensor,date,latitude,longitude,air_pressure(mBar),qcFlag 
TABS,ioos:station:wmo:42047:1,2014-02-01T00:00:00Z,27.8966,-93.5973,1015.32,11111222 
TABS,ioos:station:wmo:42047:1,2014-02-01T00:30:00Z,27.8966,-93.5973,1015.1,11111222 
TABS,ioos:station:wmo:42047:1,2014-02-01T01:00:00Z,27.8966,-93.5973,1015.19,11111222 
TABS,ioos:station:wmo:42047:1,2014-02-01T01:30:00Z,27.8966,-93.5973,1015.25,11111222 
TABS,ioos:station:wmo:42047:1,2014-02-01T02:00:00Z,27.8966,-93.5973,1015.48,11111222 
TABS,ioos:station:wmo:42047:1,2014-02-01T02:30:00Z,27.8966,-93.5973,1015.76,11111222 
TABS,ioos:station:wmo:42047:1,2014-02-01T03:00:00Z,27.8966,-93.5973,1015.72,11111222 
TABS,ioos:station:wmo:42047:1,2014-02-01T03:30:00Z,27.8966,-93.5973,1015.49,11111222 
TABS,ioos:station:wmo:42047:1,2014-02-01T04:00:00Z,27.8966,-93.5973,1015.27,11111222 
TABS,ioos:station:wmo:42047:1,2014-02-01T04:30:00Z,27.8966,-93.5973,1015.21,11111222 
TABS,ioos:station:wmo:42047:1,2014-02-01T05:00:00Z,27.8966,-93.5973,1015.17,11111222 
TABS,ioos:station:wmo:42047:1,2014-02-01T05:30:00Z,27.8966,-93.5973,1014.83,11111222 
TABS,ioos:station:wmo:42047:1,2014-02-01T06:00:00Z,27.8966,-93.5973,1014.52,11111222 
TABS,ioos:station:wmo:42047:1,2014-02-01T06:30:00Z,27.8966,-93.5973,1014.59,11111222 
TABS,ioos:station:wmo:42047:1,2014-02-01T07:00:00Z,27.8966,-93.5973,1014.4,11111222 
TABS,ioos:station:wmo:42047:1,2014-02-01T07:30:00Z,27.8966,-93.5973,1014.37,11111222 
TABS,ioos:station:wmo:42047:1,2014-02-01T08:00:00Z,27.8966,-93.5973,1014.17,11111222 
TABS,ioos:station:wmo:42047:1,2014-02-01T08:30:00Z,27.8966,-93.5973,1013.82,11111222 
TABS,ioos:station:wmo:42047:1,2014-02-01T09:00:00Z,27.8966,-93.5973,1013.32,11111222 
TABS,ioos:station:wmo:42047:1,2014-02-01T09:30:00Z,27.8966,-93.5973,1013.26,11111222 
TABS,ioos:station:wmo:42047:1,2014-02-01T10:00:00Z,27.8966,-93.5973,1013.38,11111222 
TABS,ioos:station:wmo:42047:1,2014-02-01T10:30:00Z,27.8966,-93.5973,1013.38,11111222 
TABS,ioos:station:wmo:42047:1,2014-02-01T11:00:00Z,27.8966,-93.5973,1013.41,11111222 
TABS,ioos:station:wmo:42047:1,2014-02-01T11:30:00Z,27.8966,-93.5973,1013.21,11111222 
TABS,ioos:station:wmo:42047:1,2014-02-01T12:00:00Z,27.8966,-93.5973,1013.09,11111222 
TABS,ioos:station:wmo:42047:1,2014-02-01T12:30:00Z,27.8966,-93.5973,1013.28,11111222 
TABS,ioos:station:wmo:42047:1,2014-02-01T13:00:00Z,27.8966,-93.5973,1013.13,11111222 
TABS,ioos:station:wmo:42047:1,2014-02-01T13:30:00Z,27.8966,-93.5973,1013.47,11111222 
TABS,ioos:station:wmo:42047:1,2014-02-01T14:00:00Z,27.8966,-93.5973,1013.89,11111222 
TABS,ioos:station:wmo:42047:1,2014-02-01T14:30:00Z,27.8966,-93.5973,1014.3,11111222 
TABS,ioos:station:wmo:42047:1,2014-02-01T15:00:00Z,27.8966,-93.5973,1014.55,11111222 
TABS,ioos:station:wmo:42047:1,2014-02-01T15:30:00Z,27.8966,-93.5973,1015.03,11111222 
TABS,ioos:station:wmo:42047:1,2014-02-01T16:00:00Z,27.8966,-93.5973,1015.02,11111222 
TABS,ioos:station:wmo:42047:1,2014-02-01T16:30:00Z,27.8966,-93.5973,1014.73,11111222 
TABS,ioos:station:wmo:42047:1,2014-02-01T17:00:00Z,27.8966,-93.5973,1014.68,11111222 
TABS,ioos:station:wmo:42047:1,2014-02-01T17:30:00Z,27.8966,-93.5973,1014.44,11111222 
TABS,ioos:station:wmo:42047:1,2014-02-01T18:00:00Z,27.8966,-93.5973,1013.97,11111222 
TABS,ioos:station:wmo:42047:1,2014-02-01T18:30:00Z,27.8966,-93.5973,1013.59,11111222 
TABS,ioos:station:wmo:42047:1,2014-02-01T19:00:00Z,27.8966,-93.5973,1013.26,11111222 
TABS,ioos:station:wmo:42047:1,2014-02-01T19:30:00Z,27.8966,-93.5973,1012.52,11111222 
TABS,ioos:station:wmo:42047:1,2014-02-01T20:00:00Z,27.8966,-93.5973,1012.38,11111222 
TABS,ioos:station:wmo:42047:1,2014-02-01T20:30:00Z,27.8966,-93.5973,1012.09,11111222 
TABS,ioos:station:wmo:42047:1,2014-02-01T21:00:00Z,27.8966,-93.5973,1011.81,11111222 
TABS,ioos:station:wmo:42047:1,2014-02-01T21:30:00Z,27.8966,-93.5973,1011.82,11111222 
TABS,ioos:station:wmo:42047:1,2014-02-01T22:00:00Z,27.8966,-93.5973,1011.86,11111222 
TABS,ioos:station:wmo:42047:1,2014-02-01T22:30:00Z,27.8966,-93.5973,1012.01,11111222 
TABS,ioos:station:wmo:42047:1,2014-02-01T23:00:00Z,27.8966,-93.5973,1012.06,11111222 
TABS,ioos:station:wmo:42047:1,2014-02-01T23:30:00Z,27.8966,-93.5973,1012.22,11111222 
TABS,ioos:station:wmo:42047:1,2014-02-02T00:00:00Z,27.8966,-93.5973,1012.34,11111222 
TABS,ioos:station:wmo:42047:1,2014-02-02T00:30:00Z,27.8966,-93.5973,1012.54,11111222 
TABS,ioos:station:wmo:42047:1,2014-02-02T01:00:00Z,27.8966,-93.5973,1012.64,11111222 
TABS,ioos:station:wmo:42047:1,2014-02-02T01:30:00Z,27.8966,-93.5973,1012.97,11111222 
TABS,ioos:station:wmo:42047:1,2014-02-02T02:00:00Z,27.8966,-93.5973,1013.29,11111222 
TABS,ioos:station:wmo:42047:1,2014-02-02T02:30:00Z,27.8966,-93.5973,1013.47,11111222 
TABS,ioos:station:wmo:42047:1,2014-02-02T03:00:00Z,27.8966,-93.5973,1013.42,11111222 
TABS,ioos:station:wmo:42047:1,2014-02-02T03:30:00Z,27.8966,-93.5973,1013.38,11111222 
TABS,ioos:station:wmo:42047:1,2014-02-02T04:00:00Z,27.8966,-93.5973,1013.09,11111222 
TABS,ioos:station:wmo:42047:1,2014-02-02T04:30:00Z,27.8966,-93.5973,1013.42,11111222 
TABS,ioos:station:wmo:42047:1,2014-02-02T05:00:00Z,27.8966,-93.5973,1013.18,11111222 
TABS,ioos:station:wmo:42047:1,2014-02-02T05:30:00Z,27.8966,-93.5973,1012.78,11111222 
TABS,ioos:station:wmo:42047:1,2014-02-02T06:00:00Z,27.8966,-93.5973,1012.64,11111222 
TABS,ioos:station:wmo:42047:1,2014-02-02T06:30:00Z,27.8966,-93.5973,1012.76,11111222 
TABS,ioos:station:wmo:42047:1,2014-02-02T07:00:00Z,27.8966,-93.5973,1012.78,11111222 
TABS,ioos:station:wmo:42047:1,2014-02-02T07:30:00Z,27.8966,-93.5973,1012.81,11111222 
TABS,ioos:station:wmo:42047:1,2014-02-02T08:00:00Z,27.8966,-93.5973,1012.98,11111222 
TABS,ioos:station:wmo:42047:1,2014-02-02T08:30:00Z,27.8966,-93.5973,1012.91,11111222 
TABS,ioos:station:wmo:42047:1,2014-02-02T09:00:00Z,27.8966,-93.5973,1012.37,11111222 
TABS,ioos:station:wmo:42047:1,2014-02-02T09:30:00Z,27.8966,-93.5973,1012.29,11111222 
TABS,ioos:station:wmo:42047:1,2014-02-02T10:00:00Z,27.8966,-93.5973,1012.33,11111222 
TABS,ioos:station:wmo:42047:1,2014-02-02T10:30:00Z,27.8966,-93.5973,1012.59,11111222 
TABS,ioos:station:wmo:42047:1,2014-02-02T11:00:00Z,27.8966,-93.5973,1012.65,11111222 
TABS,ioos:station:wmo:42047:1,2014-02-02T11:30:00Z,27.8966,-93.5973,1012.68,11111222 
TABS,ioos:station:wmo:42047:1,2014-02-02T12:00:00Z,27.8966,-93.5973,1012.61,11111222 
TABS,ioos:station:wmo:42047:1,2014-02-02T12:30:00Z,27.8966,-93.5973,1012.78,11111222 
TABS,ioos:station:wmo:42047:1,2014-02-02T13:00:00Z,27.8966,-93.5973,1012.76,11111222 
TABS,ioos:station:wmo:42047:1,2014-02-02T13:30:00Z,27.8966,-93.5973,1012.84,11111222 
TABS,ioos:station:wmo:42047:1,2014-02-02T14:00:00Z,27.8966,-93.5973,1013.12,11111222 
TABS,ioos:station:wmo:42047:1,2014-02-02T14:30:00Z,27.8966,-93.5973,1013.18,11111222 
TABS,ioos:station:wmo:42047:1,2014-02-02T15:00:00Z,27.8966,-93.5973,1013.37,11111222 
TABS,ioos:station:wmo:42047:1,2014-02-02T15:30:00Z,27.8966,-93.5973,1013.21,11111222 
TABS,ioos:station:wmo:42047:1,2014-02-02T16:00:00Z,27.8966,-93.5973,1013.32,11111222 
TABS,ioos:station:wmo:42047:1,2014-02-02T16:30:00Z,27.8966,-93.5973,1013.22,11111222 
TABS,ioos:station:wmo:42047:1,2014-02-02T17:00:00Z,27.8966,-93.5973,1012.96,11111222 
TABS,ioos:station:wmo:42047:1,2014-02-02T17:30:00Z,27.8966,-93.5973,1012.78,11111222 
TABS,ioos:station:wmo:42047:1,2014-02-02T18:00:00Z,27.8966,-93.5973,1012.61,11111222 
TABS,ioos:station:wmo:42047:1,2014-02-02T18:30:00Z,27.8966,-93.5973,1012.17,11111222 
TABS,ioos:station:wmo:42047:1,2014-02-02T19:00:00Z,27.8966,-93.5973,1011.82,11111222 
TABS,ioos:station:wmo:42047:1,2014-02-02T19:30:00Z,27.8966,-93.5973,1011.87,11111222 
TABS,ioos:station:wmo:42047:1,2014-02-02T20:00:00Z,27.8966,-93.5973,1011.47,11111222 
TABS,ioos:station:wmo:42047:1,2014-02-02T20:30:00Z,27.8966,-93.5973,1011.54,11111222 
TABS,ioos:station:wmo:42047:1,2014-02-02T21:00:00Z,27.8966,-93.5973,1011.69,11111222 
TABS,ioos:station:wmo:42047:1,2014-02-02T21:30:00Z,27.8966,-93.5973,1011.71,11111222 
TABS,ioos:station:wmo:42047:1,2014-02-02T22:00:00Z,27.8966,-93.5973,1011.88,11111222 
TABS,ioos:station:wmo:42047:1,2014-02-02T22:30:00Z,27.8966,-93.5973,1012.53,11111222 
TABS,ioos:station:wmo:42047:1,2014-02-02T23:00:00Z,27.8966,-93.5973,1012.49,11111222 
TABS,ioos:station:wmo:42047:1,2014-02-02T23:30:00Z,27.8966,-93.5973,1012.71,11111222 
TABS,ioos:station:wmo:42047:1,2014-02-03T00:00:00Z,27.8966,-93.5973,1012.82,11111222 
TABS,ioos:station:wmo:42047:1,2014-02-03T00:30:00Z,27.8966,-93.5973,1013.02,11111222 
TABS,ioos:station:wmo:42047:1,2014-02-03T01:00:00Z,27.8966,-93.5973,1013.3,11111222 
TABS,ioos:station:wmo:42047:1,2014-02-03T01:30:00Z,27.8966,-93.5973,1013.61,11111222 
TABS,ioos:station:wmo:42047:1,2014-02-03T02:00:00Z,27.8966,-93.5973,1015.05,11111222 
TABS,ioos:station:wmo:42047:1,2014-02-03T02:30:00Z,27.8966,-93.5973,1015.22,11111222 
TABS,ioos:station:wmo:42047:1,2014-02-03T03:00:00Z,27.8966,-93.5973,1015.99,11111222 
TABS,ioos:station:wmo:42047:1,2014-02-03T03:30:00Z,27.8966,-93.5973,1016.16,11111222 
TABS,ioos:station:wmo:42047:1,2014-02-03T04:00:00Z,27.8966,-93.5973,1016.57,11111222 
TABS,ioos:station:wmo:42047:1,2014-02-03T04:30:00Z,27.8966,-93.5973,1016.91,11111222 
TABS,ioos:station:wmo:42047:1,2014-02-03T05:00:00Z,27.8966,-93.5973,1017.38,11111222 
TABS,ioos:station:wmo:42047:1,2014-02-03T05:30:00Z,27.8966,-93.5973,1017.06,11111222 
TABS,ioos:station:wmo:42047:1,2014-02-03T06:00:00Z,27.8966,-93.5973,1017.33,11111222 
TABS,ioos:station:wmo:42047:1,2014-02-03T06:30:00Z,27.8966,-93.5973,1017.29,11111222 
TABS,ioos:station:wmo:42047:1,2014-02-03T07:00:00Z,27.8966,-93.5973,1017.48,11111222 
TABS,ioos:station:wmo:42047:1,2014-02-03T07:30:00Z,27.8966,-93.5973,1017.75,11111222 
TABS,ioos:station:wmo:42047:1,2014-02-03T08:00:00Z,27.8966,-93.5973,1017.35,11111222 
TABS,ioos:station:wmo:42047:1,2014-02-03T08:30:00Z,27.8966,-93.5973,1017.77,11111222 
TABS,ioos:station:wmo:42047:1,2014-02-03T09:00:00Z,27.8966,-93.5973,1017.59,11111222 
TABS,ioos:station:wmo:42047:1,2014-02-03T09:30:00Z,27.8966,-93.5973,1017.73,11111222 
TABS,ioos:station:wmo:42047:1,2014-02-03T10:00:00Z,27.8966,-93.5973,1018.12,11111222 
TABS,ioos:station:wmo:42047:1,2014-02-03T10:30:00Z,27.8966,-93.5973,1018.54,11111222 
TABS,ioos:station:wmo:42047:1,2014-02-03T11:00:00Z,27.8966,-93.5973,1018.19,11111222 
TABS,ioos:station:wmo:42047:1,2014-02-03T11:30:00Z,27.8966,-93.5973,1018.49,11111222 
TABS,ioos:station:wmo:42047:1,2014-02-03T12:00:00Z,27.8966,-93.5973,1018.51,11111222 
TABS,ioos:station:wmo:42047:1,2014-02-03T12:30:00Z,27.8966,-93.5973,1019.49,11111222 
TABS,ioos:station:wmo:42047:1,2014-02-03T13:00:00Z,27.8966,-93.5973,1019.31,11111222 
TABS,ioos:station:wmo:42047:1,2014-02-03T13:30:00Z,27.8966,-93.5973,1019.87,11111222 
TABS,ioos:station:wmo:42047:1,2014-02-03T14:00:00Z,27.8966,-93.5973,1019.62,11111222 
TABS,ioos:station:wmo:42047:1,2014-02-03T14:30:00Z,27.8966,-93.5973,1020.37,11111222 
TABS,ioos:station:wmo:42047:1,2014-02-03T15:00:00Z,27.8966,-93.5973,1020.67,11111222 
TABS,ioos:station:wmo:42047:1,2014-02-03T15:30:00Z,27.8966,-93.5973,1020.98,11111222 
TABS,ioos:station:wmo:42047:1,2014-02-03T16:00:00Z,27.8966,-93.5973,1021.61,11111222 
TABS,ioos:station:wmo:42047:1,2014-02-03T16:30:00Z,27.8966,-93.5973,1021.22,11111222 
TABS,ioos:station:wmo:42047:1,2014-02-03T17:00:00Z,27.8966,-93.5973,1021.11,11111222 
TABS,ioos:station:wmo:42047:1,2014-02-03T17:30:00Z,27.8966,-93.5973,1020.14,11111222 
TABS,ioos:station:wmo:42047:1,2014-02-03T18:00:00Z,27.8966,-93.5973,1019.57,11111222 
TABS,ioos:station:wmo:42047:1,2014-02-03T18:30:00Z,27.8966,-93.5973,1019.27,11111222 
TABS,ioos:station:wmo:42047:1,2014-02-03T19:00:00Z,27.8966,-93.5973,1018.33,11111222 
TABS,ioos:station:wmo:42047:1,2014-02-03T19:30:00Z,27.8966,-93.5973,1017.79,11111222 
TABS,ioos:station:wmo:42047:1,2014-02-03T20:00:00Z,27.8966,-93.5973,1017.43,11111222 
TABS,ioos:station:wmo:42047:1,2014-02-03T20:30:00Z,27.8966,-93.5973,1017.1,11111222 
TABS,ioos:station:wmo:42047:1,2014-02-03T21:00:00Z,27.8966,-93.5973,1016.87,11111222 
TABS,ioos:station:wmo:42047:1,2014-02-03T21:30:00Z,27.8966,-93.5973,1017.05,11111222 
TABS,ioos:station:wmo:42047:1,2014-02-03T22:00:00Z,27.8966,-93.5973,1017.34,11111222 
TABS,ioos:station:wmo:42047:1,2014-02-03T22:30:00Z,27.8966,-93.5973,1016.95,11111222 
TABS,ioos:station:wmo:42047:1,2014-02-03T23:00:00Z,27.8966,-93.5973,1017.02,11111222 
TABS,ioos:station:wmo:42047:1,2014-02-03T23:30:00Z,27.8966,-93.5973,1017.04,11111222 
TABS,ioos:station:wmo:42047:1,2014-02-04T00:00:00Z,27.8966,-93.5973,1016.7,11111222 
TABS,ioos:station:wmo:42047:1,2014-02-04T00:30:00Z,27.8966,-93.5973,1016.68,11111222 
TABS,ioos:station:wmo:42047:1,2014-02-04T01:00:00Z,27.8966,-93.5973,1016.62,11111222 
TABS,ioos:station:wmo:42047:1,2014-02-04T01:30:00Z,27.8966,-93.5973,1016.45,11111222 
TABS,ioos:station:wmo:42047:1,2014-02-04T02:00:00Z,27.8966,-93.5973,1016.23,11111222 
TABS,ioos:station:wmo:42047:1,2014-02-04T02:30:00Z,27.8966,-93.5973,1016.29,11111222 
TABS,ioos:station:wmo:42047:1,2014-02-04T03:00:00Z,27.8966,-93.5973,1016.34,11111222 
TABS,ioos:station:wmo:42047:1,2014-02-04T03:30:00Z,27.8966,-93.5973,1016.0,11111222 
TABS,ioos:station:wmo:42047:1,2014-02-04T04:00:00Z,27.8966,-93.5973,1015.94,11111222 
TABS,ioos:station:wmo:42047:1,2014-02-04T04:30:00Z,27.8966,-93.5973,1015.34,11111222 
TABS,ioos:station:wmo:42047:1,2014-02-04T05:00:00Z,27.8966,-93.5973,1015.07,11111222 
TABS,ioos:station:wmo:42047:1,2014-02-04T05:30:00Z,27.8966,-93.5973,1014.86,11111222 
TABS,ioos:station:wmo:42047:1,2014-02-04T06:00:00Z,27.8966,-93.5973,1014.24,11111222 
TABS,ioos:station:wmo:42047:1,2014-02-04T06:30:00Z,27.8966,-93.5973,1014.1,11111222 
TABS,ioos:station:wmo:42047:1,2014-02-04T07:00:00Z,27.8966,-93.5973,1013.67,11111222 
TABS,ioos:station:wmo:42047:1,2014-02-04T07:30:00Z,27.8966,-93.5973,1013.28,11111222 
TABS,ioos:station:wmo:42047:1,2014-02-04T08:00:00Z,27.8966,-93.5973,1012.67,11111222 
TABS,ioos:station:wmo:42047:1,2014-02-04T08:30:00Z,27.8966,-93.5973,1012.43,11111222 
TABS,ioos:station:wmo:42047:1,2014-02-04T09:00:00Z,27.8966,-93.5973,1012.07,11111222 
TABS,ioos:station:wmo:42047:1,2014-02-04T09:30:00Z,27.8966,-93.5973,1011.62,11111222 
TABS,ioos:station:wmo:42047:1,2014-02-04T10:00:00Z,27.8966,-93.5973,1011.09,11111222 
TABS,ioos:station:wmo:42047:1,2014-02-04T10:30:00Z,27.8966,-93.5973,1011.28,11111222 
TABS,ioos:station:wmo:42047:1,2014-02-04T11:00:00Z,27.8966,-93.5973,1011.09,11111222 
TABS,ioos:station:wmo:42047:1,2014-02-04T11:30:00Z,27.8966,-93.5973,1010.94,11111222 
TABS,ioos:station:wmo:42047:1,2014-02-04T12:00:00Z,27.8966,-93.5973,1010.81,11111222 
TABS,ioos:station:wmo:42047:1,2014-02-04T12:30:00Z,27.8966,-93.5973,1011.3,11111222 
TABS,ioos:station:wmo:42047:1,2014-02-04T13:00:00Z,27.8966,-93.5973,1011.55,11111222 
TABS,ioos:station:wmo:42047:1,2014-02-04T13:30:00Z,27.8966,-93.5973,1012.01,11111222 
TABS,ioos:station:wmo:42047:1,2014-02-04T14:00:00Z,27.8966,-93.5973,1012.36,11111222 
TABS,ioos:station:wmo:42047:1,2014-02-04T14:30:00Z,27.8966,-93.5973,1012.83,11111222 
TABS,ioos:station:wmo:42047:1,2014-02-04T15:00:00Z,27.8966,-93.5973,1012.89,11111222 
TABS,ioos:station:wmo:42047:1,2014-02-04T15:30:00Z,27.8966,-93.5973,1013.26,11111222 
TABS,ioos:station:wmo:42047:1,2014-02-04T16:00:00Z,27.8966,-93.5973,1012.82,11111222 
TABS,ioos:station:wmo:42047:1,2014-02-04T16:30:00Z,27.8966,-93.5973,1012.29,11111222 
TABS,ioos:station:wmo:42047:1,2014-02-04T17:00:00Z,27.8966,-93.5973,1012.57,11111222 
TABS,ioos:station:wmo:42047:1,2014-02-04T17:30:00Z,27.8966,-93.5973,1011.93,11111222 
TABS,ioos:station:wmo:42047:1,2014-02-04T18:00:00Z,27.8966,-93.5973,1011.57,11111222 
TABS,ioos:station:wmo:42047:1,2014-02-04T18:30:00Z,27.8966,-93.5973,1010.9,11111222 
TABS,ioos:station:wmo:42047:1,2014-02-04T19:00:00Z,27.8966,-93.5973,1010.9,11111222 
TABS,ioos:station:wmo:42047:1,2014-02-04T19:30:00Z,27.8966,-93.5973,1010.36,11111222 
TABS,ioos:station:wmo:42047:1,2014-02-04T20:00:00Z,27.8966,-93.5973,1009.98,11111222 
TABS,ioos:station:wmo:42047:1,2014-02-04T20:30:00Z,27.8966,-93.5973,1009.78,11111222 
TABS,ioos:station:wmo:42047:1,2014-02-04T21:00:00Z,27.8966,-93.5973,1009.84,11111222 
TABS,ioos:station:wmo:42047:1,2014-02-04T21:30:00Z,27.8966,-93.5973,1010.18,11111222 
TABS,ioos:station:wmo:42047:1,2014-02-04T22:00:00Z,27.8966,-93.5973,1011.21,11111222 
TABS,ioos:station:wmo:42047:1,2014-02-04T22:30:00Z,27.8966,-93.5973,1011.4,11111222 
TABS,ioos:station:wmo:42047:1,2014-02-04T23:00:00Z,27.8966,-93.5973,1011.58,11111222 
TABS,ioos:station:wmo:42047:1,2014-02-04T23:30:00Z,27.8966,-93.5973,1011.9,11111222 
TABS,ioos:station:wmo:42047:1,2014-02-05T00:00:00Z,27.8966,-93.5973,1012.23,11111222 
TABS,ioos:station:wmo:42047:1,2014-02-05T00:30:00Z,27.8966,-93.5973,1012.52,11111222 
TABS,ioos:station:wmo:42047:1,2014-02-05T01:00:00Z,27.8966,-93.5973,1012.77,11111222 
TABS,ioos:station:wmo:42047:1,2014-02-05T01:30:00Z,27.8966,-93.5973,1013.61,11111222 
TABS,ioos:station:wmo:42047:1,2014-02-05T02:00:00Z,27.8966,-93.5973,1014.3,11111222 
TABS,ioos:station:wmo:42047:1,2014-02-05T02:30:00Z,27.8966,-93.5973,1014.37,11111222 
TABS,ioos:station:wmo:42047:1,2014-02-05T03:00:00Z,27.8966,-93.5973,1014.91,11111222 
TABS,ioos:station:wmo:42047:1,2014-02-05T03:30:00Z,27.8966,-93.5973,1015.53,11111222 
TABS,ioos:station:wmo:42047:1,2014-02-05T04:00:00Z,27.8966,-93.5973,1015.39,11111222 
TABS,ioos:station:wmo:42047:1,2014-02-05T04:30:00Z,27.8966,-93.5973,1016.23,11111222 
TABS,ioos:station:wmo:42047:1,2014-02-05T05:00:00Z,27.8966,-93.5973,1016.79,11111222 
TABS,ioos:station:wmo:42047:1,2014-02-05T05:30:00Z,27.8966,-93.5973,1017.22,11111222 
TABS,ioos:station:wmo:42047:1,2014-02-05T06:00:00Z,27.8966,-93.5973,1017.68,11111222 
TABS,ioos:station:wmo:42047:1,2014-02-05T06:30:00Z,27.8966,-93.5973,1017.85,11111222 
TABS,ioos:station:wmo:42047:1,2014-02-05T07:00:00Z,27.8966,-93.5973,1017.54,11111222 
TABS,ioos:station:wmo:42047:1,2014-02-05T07:30:00Z,27.8966,-93.5973,1018.16,11111222 
TABS,ioos:station:wmo:42047:1,2014-02-05T08:00:00Z,27.8966,-93.5973,1018.32,11111222 
TABS,ioos:station:wmo:42047:1,2014-02-05T08:30:00Z,27.8966,-93.5973,1018.69,11111222 
TABS,ioos:station:wmo:42047:1,2014-02-05T09:00:00Z,27.8966,-93.5973,1018.37,11111222 
TABS,ioos:station:wmo:42047:1,2014-02-05T09:30:00Z,27.8966,-93.5973,1018.9,11111222 
TABS,ioos:station:wmo:42047:1,2014-02-05T10:00:00Z,27.8966,-93.5973,1019.2,11111222 
TABS,ioos:station:wmo:42047:1,2014-02-05T10:30:00Z,27.8966,-93.5973,1019.28,11111222 
TABS,ioos:station:wmo:42047:1,2014-02-05T11:00:00Z,27.8966,-93.5973,1018.94,11111222 
TABS,ioos:station:wmo:42047:1,2014-02-05T11:30:00Z,27.8966,-93.5973,1019.82,11111222 
TABS,ioos:station:wmo:42047:1,2014-02-05T12:00:00Z,27.8966,-93.5973,1020.7,11111222 
TABS,ioos:station:wmo:42047:1,2014-02-05T12:30:00Z,27.8966,-93.5973,1021.21,11111222 
TABS,ioos:station:wmo:42047:1,2014-02-05T13:00:00Z,27.8966,-93.5973,1021.12,11111222 
TABS,ioos:station:wmo:42047:1,2014-02-05T13:30:00Z,27.8966,-93.5973,1022.25,11111222 
TABS,ioos:station:wmo:42047:1,2014-02-05T14:00:00Z,27.8966,-93.5973,1021.96,11111222 
TABS,ioos:station:wmo:42047:1,2014-02-05T14:30:00Z,27.8966,-93.5973,1022.61,11111222 
TABS,ioos:station:wmo:42047:1,2014-02-05T15:00:00Z,27.8966,-93.5973,1022.61,11111222 
TABS,ioos:station:wmo:42047:1,2014-02-05T15:30:00Z,27.8966,-93.5973,1023.49,11111222 
TABS,ioos:station:wmo:42047:1,2014-02-05T16:00:00Z,27.8966,-93.5973,1023.45,11111222 
TABS,ioos:station:wmo:42047:1,2014-02-05T16:30:00Z,27.8966,-93.5973,1023.67,11111222 
TABS,ioos:station:wmo:42047:1,2014-02-05T17:00:00Z,27.8966,-93.5973,1023.69,11111222 
TABS,ioos:station:wmo:42047:1,2014-02-05T17:30:00Z,27.8966,-93.5973,1024.05,11111222 
TABS,ioos:station:wmo:42047:1,2014-02-05T18:00:00Z,27.8966,-93.5973,1023.71,11111222 
TABS,ioos:station:wmo:42047:1,2014-02-05T18:30:00Z,27.8966,-93.5973,1023.88,11111222 
TABS,ioos:station:wmo:42047:1,2014-02-05T19:00:00Z,27.8966,-93.5973,1023.24,11111222 
TABS,ioos:station:wmo:42047:1,2014-02-05T19:30:00Z,27.8966,-93.5973,1022.69,11111222 
TABS,ioos:station:wmo:42047:1,2014-02-05T20:00:00Z,27.8966,-93.5973,1022.37,11111222 
TABS,ioos:station:wmo:42047:1,2014-02-05T20:30:00Z,27.8966,-93.5973,1022.7,11111222 
TABS,ioos:station:wmo:42047:1,2014-02-05T21:00:00Z,27.8966,-93.5973,1022.65,11111222 
TABS,ioos:station:wmo:42047:1,2014-02-05T21:30:00Z,27.8966,-93.5973,1022.82,11111222 
TABS,ioos:station:wmo:42047:1,2014-02-05T22:00:00Z,27.8966,-93.5973,1022.61,11111222 
TABS,ioos:station:wmo:42047:1,2014-02-05T22:30:00Z,27.8966,-93.5973,1023.02,11111222 
TABS,ioos:station:wmo:42047:1,2014-02-05T23:00:00Z,27.8966,-93.5973,1022.88,11111222 
TABS,ioos:station:wmo:42047:1,2014-02-05T23:30:00Z,27.8966,-93.5973,1022.79,11111222 
TABS,ioos:station:wmo:42047:1,2014-02-06T00:00:00Z,27.8966,-93.5973,1023.15,11111222 
TABS,ioos:station:wmo:42047:1,2014-02-06T00:30:00Z,27.8966,-93.5973,1023.16,11111222 
TABS,ioos:station:wmo:42047:1,2014-02-06T01:00:00Z,27.8966,-93.5973,1023.05,11111222 
TABS,ioos:station:wmo:42047:1,2014-02-06T01:30:00Z,27.8966,-93.5973,1023.55,11111222 
TABS,ioos:station:wmo:42047:1,2014-02-06T02:00:00Z,27.8966,-93.5973,1023.91,11111222 
TABS,ioos:station:wmo:42047:1,2014-02-06T02:30:00Z,27.8966,-93.5973,1023.69,11111222 
TABS,ioos:station:wmo:42047:1,2014-02-06T03:00:00Z,27.8966,-93.5973,1024.08,11111222 
TABS,ioos:station:wmo:42047:1,2014-02-06T03:30:00Z,27.8966,-93.5973,1024.29,11111222 
TABS,ioos:station:wmo:42047:1,2014-02-06T04:00:00Z,27.8966,-93.5973,1024.54,11111222 
TABS,ioos:station:wmo:42047:1,2014-02-06T04:30:00Z,27.8966,-93.5973,1024.51,11111222 
TABS,ioos:station:wmo:42047:1,2014-02-06T05:00:00Z,27.8966,-93.5973,1024.34,11111222 
TABS,ioos:station:wmo:42047:1,2014-02-06T05:30:00Z,27.8966,-93.5973,1023.98,11111222 
TABS,ioos:station:wmo:42047:1,2014-02-06T06:00:00Z,27.8966,-93.5973,1023.84,11111222 
TABS,ioos:station:wmo:42047:1,2014-02-06T06:30:00Z,27.8966,-93.5973,1023.84,11111222 
TABS,ioos:station:wmo:42047:1,2014-02-06T07:00:00Z,27.8966,-93.5973,1023.38,11111222 
TABS,ioos:station:wmo:42047:1,2014-02-06T07:30:00Z,27.8966,-93.5973,1023.56,11111222 
TABS,ioos:station:wmo:42047:1,2014-02-06T08:00:00Z,27.8966,-93.5973,1023.6,11111222 
TABS,ioos:station:wmo:42047:1,2014-02-06T08:30:00Z,27.8966,-93.5973,1023.43,11111222 
TABS,ioos:station:wmo:42047:1,2014-02-06T09:00:00Z,27.8966,-93.5973,1023.32,11111222 
TABS,ioos:station:wmo:42047:1,2014-02-06T09:30:00Z,27.8966,-93.5973,1022.98,11111222 
TABS,ioos:station:wmo:42047:1,2014-02-06T10:00:00Z,27.8966,-93.5973,1023.1,11111222 
TABS,ioos:station:wmo:42047:1,2014-02-06T10:30:00Z,27.8966,-93.5973,1023.09,11111222 
TABS,ioos:station:wmo:42047:1,2014-02-06T11:00:00Z,27.8966,-93.5973,1022.96,11111222 
TABS,ioos:station:wmo:42047:1,2014-02-06T11:30:00Z,27.8966,-93.5973,1023.76,11111222 
TABS,ioos:station:wmo:42047:1,2014-02-06T12:00:00Z,27.8966,-93.5973,1024.44,11111222 
TABS,ioos:station:wmo:42047:1,2014-02-06T12:30:00Z,27.8966,-93.5973,1025.13,11111222 
TABS,ioos:station:wmo:42047:1,2014-02-06T13:00:00Z,27.8966,-93.5973,1025.52,11111222 
TABS,ioos:station:wmo:42047:1,2014-02-06T13:30:00Z,27.8966,-93.5973,1025.97,11111222 
TABS,ioos:station:wmo:42047:1,2014-02-06T14:00:00Z,27.8966,-93.5973,1026.37,11111222 
TABS,ioos:station:wmo:42047:1,2014-02-06T14:30:00Z,27.8966,-93.5973,1026.52,11111222 
TABS,ioos:station:wmo:42047:1,2014-02-06T15:00:00Z,27.8966,-93.5973,1027.12,11111222 
TABS,ioos:station:wmo:42047:1,2014-02-06T15:30:00Z,27.8966,-93.5973,1027.77,11111222 
TABS,ioos:station:wmo:42047:1,2014-02-06T16:00:00Z,27.8966,-93.5973,1027.6,11111222 
TABS,ioos:station:wmo:42047:1,2014-02-06T16:30:00Z,27.8966,-93.5973,1027.08,11111222 
TABS,ioos:station:wmo:42047:1,2014-02-06T17:00:00Z,27.8966,-93.5973,1026.57,11111222 
TABS,ioos:station:wmo:42047:1,2014-02-06T17:30:00Z,27.8966,-93.5973,1026.63,11111222 
TABS,ioos:station:wmo:42047:1,2014-02-06T18:00:00Z,27.8966,-93.5973,1026.66,11111222 
TABS,ioos:station:wmo:42047:1,2014-02-06T18:30:00Z,27.8966,-93.5973,1026.16,11111222 